[Iaude] MPEC F153: 2019 FA2 [a=1.90,e=0.70,i=2.9,H=26.2]

mpec at mpcdb1.cfa.harvard.edu mpec at mpcdb1.cfa.harvard.edu
Sun Mar 31 19:25:17 EDT 2019


M.P.E.C. 2019-F153                               Issued 2019 Mar. 31, 23:22 UT
 
     The Minor Planet Electronic Circulars contain information on unusual
         minor planets and routine data on comets.  They are published
    on behalf of Division F of the International Astronomical Union by the
          Minor Planet Center, Smithsonian Astrophysical Observatory,
                          Cambridge, MA 02138, U.S.A.

             Prepared using the Tamkin Foundation Computer Network

                              MPC at CFA.HARVARD.EDU
            URL https://www.minorplanetcenter.net/    ISSN 1523-6714


                                   2019 FA2
 
Observations:
     K19F02A* C2019 03 30.47008812 48 22.43 -09 54 58.1          19.15oVEF153T08
     K19F02A  C2019 03 30.47101612 48 21.88 -09 54 45.2          19.15oVEF153T08
     K19F02A  C2019 03 30.47855412 48 17.34 -09 52 57.4          19.21oVEF153T08
     K19F02A  C2019 03 30.48007812 48 16.45 -09 52 35.5          19.18oVEF153T08
     K19F02A  C2019 03 30.48747212 48 12.19 -09 50 51.4          19.20oVEF153T08
     K19F02A  C2019 03 30.48845812 48 11.49 -09 50 35.9          18.33oVEF153T08
     K19F02A KC2019 03 30.87089612 45 38.84 -08 32 18.2          19.8 GVEF153L01
     K19F02A KC2019 03 30.87159112 45 38.51 -08 32 10.4          20.1 GVEF153L01
     K19F02A KC2019 03 30.87218412 45 38.25 -08 32 03.8          20.1 GVEF153L01
     K19F02A pC2019 03 30.87406212 45 37.44 -08 31 43.4          19.6 GVEF153L01
     K19F02A  C2019 03 30.91457 12 45 19.55 -08 24 32.9                VEF153246
     K19F02A  C2019 03 30.91477 12 45 19.45 -08 24 31.4                VEF153246
     K19F02A  C2019 03 30.91495 12 45 19.44 -08 24 29.2                VEF153246
     K19F02A  C2019 03 30.91618 12 45 18.86 -08 24 16.8                VEF153246
     K19F02A KC2019 03 30.92959312 45 15.91 -08 21 40.2          19.2 VqEF153I93
     K19F02A KC2019 03 30.93637212 45 13.06 -08 20 29.3          19.4 VqEF153I93
     K19F02A KC2019 03 30.94323312 45 10.11 -08 19 16.3          19.4 VqEF153I93
     K19F02A KC2019 03 30.96048 12 45 00.31 -08 16 19.3          19.4 GVEF153595
     K19F02A KC2019 03 30.96691 12 44 57.55 -08 15 13.1          19.4 GVEF153595
     K19F02A KC2019 03 30.98010612 44 53.53 -08 12 50.1          20.1 GVEF153C95
     K19F02A HC2019 03 30.98426 12 44 51.15 -08 12 12.6                VEF153204
     K19F02A KC2019 03 30.98894612 44 49.90 -08 11 20.4          19.8 GVEF153C95
     K19F02A KC2019 03 30.98980 12 44 48.85 -08 11 15.4                VEF153204
     K19F02A KC2019 03 30.99551 12 44 46.47 -08 10 16.4          19.3 GVEF153204
     K19F02A KC2019 03 30.99778512 44 46.09 -08 09 48.9          20.9 GVEF153C95
     K19F02A  C2019 03 31.20121 12 43 47.16 -07 36 23.7          18.4 GVEF153I52
     K19F02A  C2019 03 31.20163 12 43 47.03 -07 36 20.5          18.9 GVEF153I52
     K19F02A  C2019 03 31.20205 12 43 46.88 -07 36 17.3          19.0 GVEF153I52
     K19F02A  C2019 03 31.20246 12 43 46.74 -07 36 13.0          19.3 GVEF153I52
     K19F02A  C2019 03 31.30082 12 43 10.42 -07 21 44.3          19.3 GVEF153G96
     K19F02A  C2019 03 31.30601 12 43 08.52 -07 20 59.3          19.5 GVEF153G96
     K19F02A  C2019 03 31.31119 12 43 06.64 -07 20 14.9          19.6 GVEF153G96
     K19F02A  C2019 03 31.31636 12 43 04.74 -07 19 30.4          19.3 GVEF153G96
 
Observer details:
204 Schiaparelli Observatory.  Observer L. Buzzi.  0.84-m f/3.5 reflector +
    CCD.
246 Klet Observatory-KLENOT.  Observers M. Tichy, J. Ticha.  1.06-m f/5.2
    reflector + 2048x2048 CCD.
595 Farra dIsonzo.  Observers U. Montanar, N. Moretta, E. Pettarin,
    F. Piani.  Measurer E. Pettarin.  0.61-m f/4.5 reflector + CCD.
C95 SATINO Remote Observatory, Haute Provence.  Observer J. Jahn.  0.60-m
    f/3.2 Newtonian reflector + CCD.
G96 Mt. Lemmon Survey.  Observer D. C. Fuls.  Measurers B. M. Africano,
    E. J. Christensen, G. A. Farneth, D. C. Fuls, A. R. Gibbs, A. D. Grauer,
    H. Groeller, R. A. Kowalski, S. M. Larson, G. J. Leonard, T. A. Pruyne,
    R. L. Seaman, F. C. Shelly.  1.5-m reflector + 10K CCD.
I52 Steward Observatory, Mt. Lemmon Station.  Observer H. Groeller.
    Measurers B. M. Africano, E. J. Christensen, G. A. Farneth, D. C. Fuls,
    A. R. Gibbs, A. D. Grauer, H. Groeller, R. A. Kowalski, S. M. Larson,
    G. J. Leonard, T. A. Pruyne, R. L. Seaman, F. C. Shelly.  1.0-m reflector
    + CCD.
I93 St Pardon de Conques.  Observer F. Losse.  0.40-m f/3.7 reflector + CCD.
L01 Visnjan Observatory, Tican.  Observers K. Korlevic, F. Valentine,
    A. Merlak.  Measurer K. Korlevic.  1.0-m f/2.9 reflector + CCD.
T08 ATLAS-MLO, Mauna Loa.  Observers L. Denneau, J. Tonry, A. Heinze,
    H. Weiland, H. Flewelling.  Measurers L. Denneau, J. Tonry, A. Heinze,
    H. Weiland, H. Flewelling, B. Stalder, A. Fitzsimmons, D. Young,
    N. Erasmus.  0.5-m reflector + CCD.
 
Orbital elements:
2019 FA2                                                 Earth MOID = 0.0048 AU
Epoch 2019 Apr. 27.0 TT = JDT 2458600.5                 MPC
M  29.21319              (2000.0)            P               Q
n   0.37605796     Peri.  262.06811     -0.07329170     -0.99725235
a   1.9009303      Node   192.15067     +0.93399697     -0.06484716
e   0.7009095      Incl.    2.93395     +0.34968270     -0.03581324
P   2.62           H   26.2           G   0.15           U   7
Residuals in seconds of arc
190330 T08  0.6+  0.1+    190330 246  0.7-  0.4-    190330 204  0.1-  0.3-
190330 T08  0.6+  0.3-    190330 246  0.3+  0.1-    190330 204  0.3-  0.0
190330 T08  0.5-  0.1-    190330 246  0.5-  0.9-    190330 C95  0.1+  0.3-
190330 T08  0.4-  0.1+    190330 I93  0.1+  0.5+    190331 I52  0.6-  0.5+
190330 T08  0.7+  0.8-    190330 I93  0.5+  0.3-    190331 I52  0.3-  0.1-
190330 T08  1.1-  0.7+    190330 I93  0.1-  0.3+    190331 I52  0.2-  0.7-
190330 L01  0.2+  0.3+    190330 595  0.2+  0.7+    190331 I52  0.0   0.1-
190330 L01  0.3-  0.5+    190330 595  0.5-  0.4-    190331 G96  0.1+  0.0
190330 L01  0.3-  0.6+    190330 C95  0.7+  0.7+    190331 G96  0.1+  0.2+
190330 L01  0.2-  0.4+    190330 204  0.2-  0.3-    190331 G96  0.2+  0.0
190330 246  0.5-  0.2+    190330 C95  1.8+  0.9-    190331 G96  0.1-  0.1+

Ephemeris:
2019 FA2                 a,e,i = 1.90, 0.70, 3                   q = 0.5686
Date    TT    R. A. (2000) Decl.     Delta      r     Elong.  Phase     V
2019 03 01    00 16 15.1 -02 33 41   0.3453  0.6868    23.2   145.4    30.7
...
2019 03 16    00 19 56.7 -03 57 55   0.1414  0.8556     9.9   168.5
...
2019 03 24    00 08 20.7 -09 56 21   0.04460 0.9530    11.1   168.4    34.8
...
2019 03 30    12 53 02.6 -12 05 37   0.02847 1.0265   169.9     9.8    19.2
2019 03 31    12 44 45.9 -08 06 42   0.04010 1.0388   175.2     4.6    19.7
2019 04 01    12 40 17.3 -05 55 12   0.05189 1.0509   178.3     1.6    20.1
...
2019 04 07    12 31 44.3 -01 39 14   0.1241  1.1236   171.2     7.9    22.5
...
2019 04 15    12 29 54.8 -00 27 43   0.2241  1.2185   162.4    14.4    24.2
...
2019 04 30    12 32 47.9 -00 22 33   0.4273  1.3894   148.4    22.3    26.1

A. U. Tomatic                (C) Copyright 2019 MPC           M.P.E.C. 2019-F153



More information about the Iaude mailing list